Time,TemperatureF,DewpointF,PressureIn,WindDirection,WindDirectionDegrees,WindSpeedMPH,WindSpeedGustMPH,Humidity,HourlyPrecipIn,Conditions,Clouds,dailyrainin,SoftwareType,DateUTC
2013-02-24 00:00:00,37.8,30.2,29.82,NNE,22,2.5,9.6,74,0.00,,---,0.00,VWS V14.01,2013-02-24 05:00:00,
2013-02-24 00:02:00,37.8,30.2,29.82,NW,315,4.5,9.6,74,0.00,,---,0.00,VWS V14.01,2013-02-24 05:02:00,
2013-02-24 00:07:00,37.8,30.2,29.79,NE,45,2.9,9.6,74,0.00,,---,0.00,VWS V14.01,2013-02-24 05:07:00,
2013-02-24 00:10:00,37.8,30.2,29.80,NE,45,2.9,9.6,74,0.00,,---,0.00,VWS V14.01,2013-02-24 05:10:00,
2013-02-24 00:12:00,37.8,29.9,29.79,North,0,6.0,6.3,73,0.00,,---,0.00,VWS V14.01,2013-02-24 05:12:00,
2013-02-24 00:17:00,37.6,29.7,29.79,North,0,2.7,2.7,73,0.00,,---,0.00,VWS V14.01,2013-02-24 05:17:00,
2013-02-24 00:20:00,37.6,29.7,29.80,NNW,338,2.5,7.6,73,0.00,,---,0.00,VWS V14.01,2013-02-24 05:20:00,
2013-02-24 00:22:00,37.6,29.7,29.79,ENE,68,5.8,10.3,73,0.00,,---,0.00,VWS V14.01,2013-02-24 05:22:00,
2013-02-24 00:27:00,37.6,29.7,29.79,NNW,338,2.9,4.3,73,0.00,,---,0.00,VWS V14.01,2013-02-24 05:27:00,
2013-02-24 00:30:00,37.6,29.7,29.80,NNE,22,4.3,10.3,73,0.00,,---,0.00,VWS V14.01,2013-02-24 05:30:00,
2013-02-24 00:32:00,37.6,30.1,29.79,NE,45,5.6,6.0,74,0.00,,---,0.00,VWS V14.01,2013-02-24 05:32:00,
2013-02-24 00:37:00,37.6,30.1,29.79,NNE,22,4.3,4.7,74,0.00,,---,0.00,VWS V14.01,2013-02-24 05:37:00,
2013-02-24 00:40:00,37.6,30.1,29.80,North,0,4.7,6.0,74,0.00,,---,0.00,VWS V14.01,2013-02-24 05:40:00,
2013-02-24 00:42:00,37.6,30.1,29.79,ESE,112,3.6,5.6,74,0.00,,---,0.00,VWS V14.01,2013-02-24 05:42:00,
2013-02-24 00:47:00,37.6,30.1,29.79,NNW,338,2.0,4.0,74,0.00,,---,0.00,VWS V14.01,2013-02-24 05:47:00,
2013-02-24 00:50:00,37.6,30.1,29.80,NNW,338,3.4,5.6,74,0.00,,---,0.00,VWS V14.01,2013-02-24 05:50:00,
2013-02-24 00:52:00,37.6,30.1,29.79,NW,315,1.1,4.0,74,0.00,,---,0.00,VWS V14.01,2013-02-24 05:52:00,
2013-02-24 00:57:00,37.6,30.4,29.79,NE,45,3.4,7.2,75,0.00,,---,0.00,VWS V14.01,2013-02-24 05:57:00,
2013-02-24 01:00:00,37.6,30.4,29.80,NNW,338,7.2,7.2,75,0.00,,---,0.00,VWS V14.01,2013-02-24 06:00:00,
2013-02-24 01:02:00,37.6,30.4,29.79,ENE,68,2.5,7.2,75,0.00,,---,0.00,VWS V14.01,2013-02-24 06:02:00,
2013-02-24 01:08:00,37.6,30.4,29.79,NE,45,2.7,4.9,75,0.00,,---,0.00,VWS V14.01,2013-02-24 06:08:00,
2013-02-24 01:10:00,37.6,30.4,29.80,NNE,22,3.6,7.2,75,0.00,,---,0.00,VWS V14.01,2013-02-24 06:10:00,
2013-02-24 01:13:00,37.6,30.4,29.79,North,0,3.4,6.5,75,0.00,,---,0.00,VWS V14.01,2013-02-24 06:13:00,
2013-02-24 01:18:00,37.6,30.4,29.79,NE,45,4.0,4.3,75,0.00,,---,0.00,VWS V14.01,2013-02-24 06:18:00,
2013-02-24 01:20:00,37.6,30.4,29.80,NW,315,1.6,6.5,75,0.00,,---,0.00,VWS V14.01,2013-02-24 06:20:00,
2013-02-24 01:23:00,37.4,30.2,29.79,NNE,22,5.8,5.8,75,0.00,,---,0.00,VWS V14.01,2013-02-24 06:23:00,
2013-02-24 01:28:00,37.4,30.2,29.79,NNE,22,2.2,2.7,75,0.00,,---,0.00,VWS V14.01,2013-02-24 06:28:00,
2013-02-24 01:30:00,37.4,30.2,29.80,NNE,22,2.7,5.8,75,0.00,,---,0.00,VWS V14.01,2013-02-24 06:30:00,
2013-02-24 01:33:00,37.4,30.2,29.79,North,0,2.9,5.4,75,0.00,,---,0.00,VWS V14.01,2013-02-24 06:33:00,
2013-02-24 01:38:00,37.4,30.2,29.79,North,0,2.5,2.5,75,0.00,,---,0.00,VWS V14.01,2013-02-24 06:38:00,
2013-02-24 01:40:00,37.4,30.2,29.80,NNE,22,2.5,5.4,75,0.00,,---,0.00,VWS V14.01,2013-02-24 06:40:00,
2013-02-24 01:43:00,37.4,30.2,29.79,NNW,338,2.9,4.3,75,0.00,,---,0.00,VWS V14.01,2013-02-24 06:43:00,
2013-02-24 01:48:00,37.6,30.7,29.79,NNW,338,3.4,3.4,76,0.00,,---,0.00,VWS V14.01,2013-02-24 06:48:00,
2013-02-24 01:50:00,37.6,30.7,29.80,NW,315,2.5,4.3,76,0.00,,---,0.00,VWS V14.01,2013-02-24 06:50:00,
2013-02-24 01:53:00,37.6,30.7,29.79,NNE,22,4.3,6.5,76,0.00,,---,0.00,VWS V14.01,2013-02-24 06:53:00,
2013-02-24 01:58:00,37.6,30.7,29.79,NNW,338,2.9,4.0,76,0.00,,---,0.00,VWS V14.01,2013-02-24 06:58:00,
2013-02-24 02:00:00,37.6,30.7,29.80,NNW,338,1.3,6.5,76,0.00,,---,0.00,VWS V14.01,2013-02-24 07:00:00,
2013-02-24 02:03:00,37.6,30.7,29.79,NNW,338,2.9,4.0,76,0.00,,---,0.00,VWS V14.01,2013-02-24 07:03:00,
2013-02-24 02:08:00,37.6,30.7,29.79,North,0,3.1,4.7,76,0.00,,---,0.00,VWS V14.01,2013-02-24 07:08:00,
2013-02-24 02:10:00,37.6,30.7,29.80,NNW,338,2.2,4.0,76,0.00,,---,0.00,VWS V14.01,2013-02-24 07:10:00,
2013-02-24 02:14:00,37.6,30.7,29.79,NE,45,2.0,5.6,76,0.00,,---,0.00,VWS V14.01,2013-02-24 07:14:00,
2013-02-24 02:19:00,37.6,30.7,29.79,WNW,292,4.3,4.3,76,0.00,,---,0.00,VWS V14.01,2013-02-24 07:19:00,
2013-02-24 02:20:00,37.6,30.7,29.80,NW,315,3.4,5.6,76,0.00,,---,0.00,VWS V14.01,2013-02-24 07:20:00,
2013-02-24 02:24:00,37.6,30.7,29.79,NNW,338,2.5,4.9,76,0.00,,---,0.00,VWS V14.01,2013-02-24 07:24:00,
2013-02-24 02:29:00,37.6,30.7,29.79,NW,315,0.9,3.8,76,0.00,,---,0.00,VWS V14.01,2013-02-24 07:29:00,
2013-02-24 02:30:00,37.6,30.7,29.80,NW,315,2.9,4.9,76,0.00,,---,0.00,VWS V14.01,2013-02-24 07:30:00,
2013-02-24 02:34:00,37.6,30.7,29.79,NNW,338,1.1,3.8,76,0.00,,---,0.00,VWS V14.01,2013-02-24 07:34:00,
2013-02-24 02:39:00,37.8,30.9,29.79,NE,45,2.9,3.4,76,0.00,,---,0.00,VWS V14.01,2013-02-24 07:39:00,
2013-02-24 02:40:00,37.6,30.7,29.80,NW,315,3.4,3.8,76,0.00,,---,0.00,VWS V14.01,2013-02-24 07:40:00,
2013-02-24 02:44:00,37.8,30.9,29.79,ENE,68,2.9,3.4,76,0.00,,---,0.00,VWS V14.01,2013-02-24 07:44:00,
2013-02-24 02:49:00,37.6,30.4,29.79,NNW,338,2.9,4.9,75,0.00,,---,0.00,VWS V14.01,2013-02-24 07:49:00,
2013-02-24 02:50:00,37.8,30.6,29.80,NE,45,1.1,3.4,75,0.00,,---,0.00,VWS V14.01,2013-02-24 07:50:00,
2013-02-24 02:54:00,37.6,30.4,29.79,North,0,2.7,5.4,75,0.00,,---,0.00,VWS V14.01,2013-02-24 07:54:00,
2013-02-24 02:59:00,37.6,30.1,29.79,North,0,2.5,4.3,74,0.00,,---,0.00,VWS V14.01,2013-02-24 07:59:00,
2013-02-24 03:00:00,37.4,30.2,29.76,North,0,2.9,4.0,75,0.00,,---,0.00,VWS V14.01,2013-02-24 08:00:00,
2013-02-24 03:04:00,37.6,30.1,29.79,North,0,2.7,4.3,74,0.00,,---,0.00,VWS V14.01,2013-02-24 08:04:00,
2013-02-24 03:09:00,37.6,30.1,29.79,North,0,2.2,3.6,74,0.00,,---,0.00,VWS V14.01,2013-02-24 08:09:00,
2013-02-24 03:10:00,37.6,30.1,29.80,NNW,338,1.3,4.3,74,0.00,,---,0.00,VWS V14.01,2013-02-24 08:10:00,
2013-02-24 03:14:00,37.6,30.1,29.79,NNE,22,2.0,4.7,74,0.00,,---,0.00,VWS V14.01,2013-02-24 08:14:00,
2013-02-24 03:20:00,37.4,29.9,29.79,NE,45,2.9,3.8,74,0.00,,---,0.00,VWS V14.01,2013-02-24 08:20:00,
2013-02-24 03:25:00,37.4,29.9,29.76,ENE,68,2.0,4.9,74,0.00,,---,0.00,VWS V14.01,2013-02-24 08:25:00,
2013-02-24 03:30:00,37.4,29.5,29.76,North,0,0.9,3.1,73,0.00,,---,0.00,VWS V14.01,2013-02-24 08:30:00,
2013-02-24 03:35:00,37.2,29.4,29.76,NNE,22,2.2,4.0,73,0.00,,---,0.00,VWS V14.01,2013-02-24 08:35:00,
2013-02-24 03:40:00,37.4,29.9,29.76,NW,315,2.9,3.8,74,0.00,,---,0.00,VWS V14.01,2013-02-24 08:40:00,
2013-02-24 03:45:00,37.4,29.9,29.76,NW,315,4.0,4.9,74,0.00,,---,0.00,VWS V14.01,2013-02-24 08:45:00,
2013-02-24 03:50:00,37.4,29.9,29.76,WNW,292,2.7,3.6,74,0.00,,---,0.00,VWS V14.01,2013-02-24 08:50:00,
2013-02-24 03:55:00,37.4,29.9,29.76,NW,315,1.6,4.0,74,0.00,,---,0.00,VWS V14.01,2013-02-24 08:55:00,
2013-02-24 04:00:00,37.4,30.2,29.76,NW,315,2.7,3.8,75,0.00,,---,0.00,VWS V14.01,2013-02-24 09:00:00,
2013-02-24 04:05:00,37.4,30.2,29.76,WNW,292,4.5,5.4,75,0.00,,---,0.00,VWS V14.01,2013-02-24 09:05:00,
2013-02-24 04:10:00,37.4,30.2,29.74,NNW,338,2.5,5.8,75,0.00,,---,0.00,VWS V14.01,2013-02-24 09:10:00,
2013-02-24 04:15:00,37.4,30.2,29.74,NNW,338,3.4,6.3,75,0.00,,---,0.00,VWS V14.01,2013-02-24 09:15:00,
2013-02-24 04:20:00,37.4,30.2,29.74,NNW,338,3.8,6.3,75,0.00,,---,0.00,VWS V14.01,2013-02-24 09:20:00,
2013-02-24 04:21:00,37.4,30.2,29.74,West,270,5.6,7.8,75,0.00,,---,0.00,VWS V14.01,2013-02-24 09:21:00,
2013-02-24 04:26:00,37.4,30.2,29.76,North,0,3.4,8.1,75,0.00,,---,0.00,VWS V14.01,2013-02-24 09:26:00,
2013-02-24 04:30:00,37.4,29.9,29.76,NW,315,3.4,8.1,74,0.00,,---,0.00,VWS V14.01,2013-02-24 09:30:00,
2013-02-24 04:31:00,37.4,29.9,29.76,NW,315,5.4,5.6,74,0.00,,---,0.00,VWS V14.01,2013-02-24 09:31:00,
2013-02-24 04:36:00,37.4,29.9,29.76,NNW,338,3.8,6.5,74,0.00,,---,0.00,VWS V14.01,2013-02-24 09:36:00,
2013-02-24 04:40:00,37.4,29.9,29.76,NNW,338,2.9,6.5,74,0.00,,---,0.00,VWS V14.01,2013-02-24 09:40:00,
2013-02-24 04:41:00,37.4,29.9,29.76,NW,315,2.7,4.9,74,0.00,,---,0.00,VWS V14.01,2013-02-24 09:41:00,
2013-02-24 04:46:00,37.4,29.5,29.76,NW,315,4.0,7.4,73,0.00,,---,0.00,VWS V14.01,2013-02-24 09:46:00,
2013-02-24 04:50:00,37.4,29.5,29.76,NW,315,4.3,7.4,73,0.00,,---,0.00,VWS V14.01,2013-02-24 09:50:00,
2013-02-24 04:51:00,37.4,29.2,29.76,WNW,292,2.9,5.4,72,0.00,,---,0.00,VWS V14.01,2013-02-24 09:51:00,
2013-02-24 04:56:00,37.4,28.9,29.76,NNW,338,3.4,7.4,71,0.00,,---,0.00,VWS V14.01,2013-02-24 09:56:00,
2013-02-24 05:00:00,37.4,28.9,29.76,NNW,338,4.3,7.4,71,0.00,,---,0.00,VWS V14.01,2013-02-24 10:00:00,
2013-02-24 05:01:00,37.4,28.5,29.76,NNE,22,3.6,7.4,70,0.00,,---,0.00,VWS V14.01,2013-02-24 10:01:00,
2013-02-24 05:06:00,37.4,28.5,29.76,NNW,338,3.4,7.4,70,0.00,,---,0.00,VWS V14.01,2013-02-24 10:06:00,
2013-02-24 05:10:00,37.4,28.5,29.76,NW,315,2.2,7.4,70,0.00,,---,0.00,VWS V14.01,2013-02-24 10:10:00,
2013-02-24 05:11:00,37.4,28.5,29.76,NNW,338,2.5,6.0,70,0.00,,---,0.00,VWS V14.01,2013-02-24 10:11:00,
2013-02-24 05:16:00,37.4,28.5,29.76,North,0,4.9,6.0,70,0.00,,---,0.00,VWS V14.01,2013-02-24 10:16:00,
2013-02-24 05:20:00,37.4,28.5,29.76,North,0,2.7,6.0,70,0.00,,---,0.00,VWS V14.01,2013-02-24 10:20:00,
2013-02-24 05:22:00,37.4,28.9,29.76,ENE,68,3.4,6.5,71,0.00,,---,0.00,VWS V14.01,2013-02-24 10:22:00,
2013-02-24 05:27:00,37.4,28.9,29.76,North,0,4.7,4.7,71,0.00,,---,0.00,VWS V14.01,2013-02-24 10:27:00,
2013-02-24 05:30:00,37.4,28.9,29.76,North,0,4.7,6.5,71,0.00,,---,0.00,VWS V14.01,2013-02-24 10:30:00,
2013-02-24 05:32:00,37.2,28.7,29.76,North,0,6.0,7.2,71,0.00,,---,0.00,VWS V14.01,2013-02-24 10:32:00,
2013-02-24 05:37:00,37.2,28.7,29.76,North,0,2.5,2.5,71,0.00,,---,0.00,VWS V14.01,2013-02-24 10:37:00,
2013-02-24 05:40:00,37.2,28.7,29.76,North,0,2.5,7.2,71,0.00,,---,0.00,VWS V14.01,2013-02-24 10:40:00,
2013-02-24 05:42:00,37.2,28.7,29.76,NW,315,3.1,6.0,71,0.00,,---,0.00,VWS V14.01,2013-02-24 10:42:00,
2013-02-24 05:47:00,37.2,28.4,29.76,NNE,22,2.9,5.8,70,0.00,,---,0.00,VWS V14.01,2013-02-24 10:47:00,
2013-02-24 05:50:00,37.2,28.4,29.76,North,0,5.8,6.0,70,0.00,,---,0.00,VWS V14.01,2013-02-24 10:50:00,
2013-02-24 05:52:00,37.2,28.4,29.76,North,0,5.8,8.5,70,0.00,,---,0.00,VWS V14.01,2013-02-24 10:52:00,
2013-02-24 05:57:00,37.0,27.8,29.76,ESE,112,4.0,6.3,69,0.00,,---,0.00,VWS V14.01,2013-02-24 10:57:00,
2013-02-24 06:00:00,37.0,27.8,29.76,North,0,5.8,8.5,69,0.00,,---,0.00,VWS V14.01,2013-02-24 11:00:00,
2013-02-24 06:02:00,37.0,27.1,29.76,NW,315,5.8,7.4,67,0.00,,---,0.00,VWS V14.01,2013-02-24 11:02:00,
2013-02-24 06:07:00,37.0,26.8,29.76,NNW,338,2.9,5.4,66,0.00,,---,0.00,VWS V14.01,2013-02-24 11:07:00,
2013-02-24 06:10:00,37.0,26.8,29.76,North,0,4.0,8.1,66,0.00,,---,0.00,VWS V14.01,2013-02-24 11:10:00,
2013-02-24 06:12:00,37.0,26.4,29.76,NW,315,3.1,5.4,65,0.00,,---,0.00,VWS V14.01,2013-02-24 11:12:00,
2013-02-24 06:17:00,37.0,26.4,29.76,NW,315,2.7,2.7,65,0.00,,---,0.00,VWS V14.01,2013-02-24 11:17:00,
2013-02-24 06:20:00,37.0,26.4,29.76,WNW,292,1.6,6.3,65,0.00,,---,0.00,VWS V14.01,2013-02-24 11:20:00,
2013-02-24 06:22:00,37.0,26.4,29.76,NNW,338,2.7,3.6,65,0.00,,---,0.00,VWS V14.01,2013-02-24 11:22:00,
2013-02-24 06:28:00,37.0,26.0,29.76,NW,315,1.3,3.4,64,0.00,,---,0.00,VWS V14.01,2013-02-24 11:28:00,
2013-02-24 06:30:00,37.0,26.0,29.76,NNW,338,3.4,4.3,64,0.00,,---,0.00,VWS V14.01,2013-02-24 11:30:00,
2013-02-24 06:33:00,37.0,26.0,29.76,NNE,22,2.2,3.4,64,0.00,,---,0.00,VWS V14.01,2013-02-24 11:33:00,
2013-02-24 06:38:00,36.9,25.5,29.76,NNW,338,1.3,3.6,63,0.00,,---,0.00,VWS V14.01,2013-02-24 11:38:00,
2013-02-24 06:40:00,36.9,25.8,29.76,NW,315,3.4,4.3,64,0.00,,---,0.00,VWS V14.01,2013-02-24 11:40:00,
2013-02-24 06:43:00,36.9,25.5,29.76,NW,315,2.5,3.6,63,0.00,,---,0.00,VWS V14.01,2013-02-24 11:43:00,
2013-02-24 06:48:00,36.7,25.3,29.76,NNW,338,0.0,0.0,63,0.00,,---,0.00,VWS V14.01,2013-02-24 11:48:00,
2013-02-24 06:50:00,36.7,25.3,29.76,NNW,338,0.0,3.6,63,0.00,,---,0.00,VWS V14.01,2013-02-24 11:50:00,
2013-02-24 06:53:00,36.5,24.7,29.79,NW,315,2.7,2.7,62,0.00,,---,0.00,VWS V14.01,2013-02-24 11:53:00,
2013-02-24 06:58:00,36.3,24.6,29.79,West,270,2.0,2.5,62,0.00,,---,0.00,VWS V14.01,2013-02-24 11:58:00,
2013-02-24 07:00:00,36.5,24.7,29.80,NW,315,2.0,2.7,62,0.00,,---,0.00,VWS V14.01,2013-02-24 12:00:00,
2013-02-24 07:03:00,36.3,25.0,29.79,North,0,2.5,3.4,63,0.00,,---,0.00,VWS V14.01,2013-02-24 12:03:00,
2013-02-24 07:08:00,36.3,25.7,29.79,NNW,338,1.3,3.1,65,0.00,,---,0.00,VWS V14.01,2013-02-24 12:08:00,
2013-02-24 07:10:00,36.3,25.3,29.80,WNW,292,2.5,3.4,64,0.00,,---,0.00,VWS V14.01,2013-02-24 12:10:00,
2013-02-24 07:13:00,36.1,25.5,29.79,NW,315,2.0,3.1,65,0.00,,---,0.00,VWS V14.01,2013-02-24 12:13:00,
2013-02-24 07:18:00,36.1,25.9,29.79,WNW,292,2.5,2.5,66,0.00,,---,0.00,VWS V14.01,2013-02-24 12:18:00,
2013-02-24 07:20:00,36.1,25.9,29.80,NW,315,1.1,3.1,66,0.00,,---,0.00,VWS V14.01,2013-02-24 12:20:00,
2013-02-24 07:23:00,36.1,26.3,29.79,WNW,292,2.5,2.7,67,0.00,,---,0.00,VWS V14.01,2013-02-24 12:23:00,
2013-02-24 07:29:00,36.3,26.8,29.79,West,270,3.4,3.4,68,0.00,,---,0.00,VWS V14.01,2013-02-24 12:29:00,
2013-02-24 07:30:00,36.1,26.2,29.80,WNW,292,2.9,3.8,67,0.00,,---,0.00,VWS V14.01,2013-02-24 12:30:00,
2013-02-24 07:34:00,36.3,27.1,29.79,NNW,338,4.3,4.3,69,0.00,,---,0.00,VWS V14.01,2013-02-24 12:34:00,
2013-02-24 07:39:00,36.7,28.2,29.82,West,270,2.5,4.3,71,0.00,,---,0.00,VWS V14.01,2013-02-24 12:39:00,
2013-02-24 07:40:00,36.3,27.5,29.82,NW,315,2.2,4.3,70,0.00,,---,0.00,VWS V14.01,2013-02-24 12:40:00,
2013-02-24 07:44:00,36.7,28.2,29.82,WNW,292,3.8,4.3,71,0.00,,---,0.00,VWS V14.01,2013-02-24 12:44:00,
2013-02-24 07:49:00,36.9,28.4,29.82,NW,315,3.8,3.8,71,0.00,,---,0.00,VWS V14.01,2013-02-24 12:49:00,
2013-02-24 07:50:00,36.7,28.2,29.82,NNW,338,3.6,4.3,71,0.00,,---,0.00,VWS V14.01,2013-02-24 12:50:00,
2013-02-24 07:54:00,36.9,28.4,29.79,NW,315,4.0,6.3,71,0.00,,---,0.00,VWS V14.01,2013-02-24 12:54:00,
2013-02-24 07:59:00,37.2,28.7,29.79,WNW,292,3.6,5.8,71,0.00,,---,0.00,VWS V14.01,2013-02-24 12:59:00,
2013-02-24 08:00:00,37.0,28.5,29.80,West,270,3.6,6.3,71,0.00,,---,0.00,VWS V14.01,2013-02-24 13:00:00,
2013-02-24 08:04:00,37.4,28.9,29.79,NW,315,3.1,6.5,71,0.00,,---,0.00,VWS V14.01,2013-02-24 13:04:00,
2013-02-24 08:09:00,37.6,28.7,29.79,West,270,3.4,4.7,70,0.00,,---,0.00,VWS V14.01,2013-02-24 13:09:00,
2013-02-24 08:10:00,37.4,28.5,29.80,NW,315,3.4,6.5,70,0.00,,---,0.00,VWS V14.01,2013-02-24 13:10:00,
2013-02-24 08:14:00,37.6,28.7,29.79,WNW,292,2.0,5.4,70,0.00,,---,0.00,VWS V14.01,2013-02-24 13:14:00,
2013-02-24 08:20:00,37.6,27.6,29.79,WNW,292,3.1,6.5,67,0.00,,---,0.00,VWS V14.01,2013-02-24 13:20:00,
2013-02-24 08:25:00,37.9,28.3,29.79,West,270,4.0,6.5,68,0.00,,---,0.00,VWS V14.01,2013-02-24 13:25:00,
2013-02-24 08:30:00,37.9,27.6,29.79,WNW,292,2.5,5.6,66,0.00,,---,0.00,VWS V14.01,2013-02-24 13:30:00,
2013-02-24 08:35:00,38.1,27.4,29.79,West,270,2.9,5.8,65,0.00,,---,0.00,VWS V14.01,2013-02-24 13:35:00,
2013-02-24 08:40:00,38.3,27.2,29.79,NW,315,3.4,6.0,64,0.00,,---,0.00,VWS V14.01,2013-02-24 13:40:00,
2013-02-24 08:46:00,38.7,27.2,29.79,West,270,4.9,6.0,63,0.00,,---,0.00,VWS V14.01,2013-02-24 13:46:00,
2013-02-24 08:50:00,38.7,27.2,29.80,NW,315,3.6,6.0,63,0.00,,---,0.00,VWS V14.01,2013-02-24 13:50:00,
2013-02-24 08:51:00,38.8,26.2,29.79,NNW,338,3.8,4.9,60,0.00,,---,0.00,VWS V14.01,2013-02-24 13:51:00,
2013-02-24 08:56:00,39.2,25.3,29.79,NNW,338,4.3,5.6,57,0.00,,---,0.00,VWS V14.01,2013-02-24 13:56:00,
2013-02-24 09:00:00,39.2,25.3,29.80,West,270,3.4,5.6,57,0.00,,---,0.00,VWS V14.01,2013-02-24 14:00:00,
2013-02-24 09:01:00,39.7,25.8,29.79,WNW,292,2.7,5.6,57,0.00,,---,0.00,VWS V14.01,2013-02-24 14:01:00,
2013-02-24 09:06:00,39.9,24.6,29.79,WNW,292,2.9,6.0,54,0.00,,---,0.00,VWS V14.01,2013-02-24 14:06:00,
2013-02-24 09:10:00,40.3,25.0,29.80,NW,315,3.6,6.0,54,0.00,,---,0.00,VWS V14.01,2013-02-24 14:10:00,
2013-02-24 09:11:00,40.5,23.3,29.79,NW,315,4.9,7.6,50,0.00,,---,0.00,VWS V14.01,2013-02-24 14:11:00,
2013-02-24 09:16:00,40.8,21.7,29.79,NW,315,4.7,7.8,46,0.00,,---,0.00,VWS V14.01,2013-02-24 14:16:00,
2013-02-24 09:20:00,40.8,21.7,29.80,NW,315,4.7,7.8,46,0.00,,---,0.00,VWS V14.01,2013-02-24 14:20:00,
2013-02-24 09:21:00,41.0,20.2,29.76,NW,315,5.6,7.4,43,0.00,,---,0.00,VWS V14.01,2013-02-24 14:21:00,
2013-02-24 09:26:00,41.5,20.2,29.76,NW,315,6.3,7.4,42,0.00,,---,0.00,VWS V14.01,2013-02-24 14:26:00,
2013-02-24 09:30:00,41.5,20.2,29.76,NNW,338,7.4,7.4,42,0.00,,---,0.00,VWS V14.01,2013-02-24 14:30:00,
2013-02-24 09:31:00,41.9,19.9,29.76,WNW,292,6.0,10.5,41,0.00,,---,0.00,VWS V14.01,2013-02-24 14:31:00,
2013-02-24 09:36:00,41.7,19.2,29.79,NW,315,3.6,10.5,40,0.00,,---,0.00,VWS V14.01,2013-02-24 14:36:00,
2013-02-24 09:40:00,41.7,19.2,29.80,NW,315,3.6,10.5,40,0.00,,---,0.00,VWS V14.01,2013-02-24 14:40:00,
2013-02-24 09:42:00,41.7,18.6,29.79,NW,315,4.0,8.7,39,0.00,,---,0.00,VWS V14.01,2013-02-24 14:42:00,
2013-02-24 09:47:00,41.9,18.8,29.79,WNW,292,6.5,6.5,39,0.00,,---,0.00,VWS V14.01,2013-02-24 14:47:00,
2013-02-24 09:50:00,41.9,18.8,29.80,WNW,292,5.6,8.7,39,0.00,,---,0.00,VWS V14.01,2013-02-24 14:50:00,
2013-02-24 09:52:00,42.3,18.5,29.79,WNW,292,3.8,8.7,38,0.00,,---,0.00,VWS V14.01,2013-02-24 14:52:00,
2013-02-24 09:57:00,43.0,19.1,29.79,North,0,2.9,3.8,38,0.00,,---,0.00,VWS V14.01,2013-02-24 14:57:00,
2013-02-24 10:00:00,42.8,18.4,29.80,North,0,2.0,8.7,37,0.00,,---,0.00,VWS V14.01,2013-02-24 15:00:00,
2013-02-24 10:02:00,43.7,17.2,29.79,WNW,292,3.4,5.6,34,0.00,,---,0.00,VWS V14.01,2013-02-24 15:02:00,
2013-02-24 10:07:00,43.9,15.2,29.82,West,270,2.7,6.3,31,0.00,,---,0.00,VWS V14.01,2013-02-24 15:07:00,
2013-02-24 10:10:00,43.5,14.9,29.82,NW,315,5.8,10.1,31,0.00,,---,0.00,VWS V14.01,2013-02-24 15:10:00,
2013-02-24 10:12:00,44.2,14.8,29.82,WNW,292,4.3,10.1,30,0.00,,---,0.00,VWS V14.01,2013-02-24 15:12:00,
2013-02-24 10:18:00,44.1,13.9,29.82,WNW,292,6.9,9.4,29,0.00,,---,0.00,VWS V14.01,2013-02-24 15:18:00,
2013-02-24 10:20:00,44.1,13.9,29.82,West,270,7.8,13.2,29,0.00,,---,0.00,VWS V14.01,2013-02-24 15:20:00,
2013-02-24 10:23:00,44.6,13.5,29.79,NNW,338,10.3,11.2,28,0.00,,---,0.00,VWS V14.01,2013-02-24 15:23:00,
2013-02-24 10:28:00,45.0,13.8,29.79,North,0,8.1,10.7,28,0.00,,---,0.00,VWS V14.01,2013-02-24 15:28:00,
2013-02-24 10:30:00,44.6,13.5,29.80,NW,315,4.9,11.2,28,0.00,,---,0.00,VWS V14.01,2013-02-24 15:30:00,
2013-02-24 10:33:00,45.1,13.2,29.79,NW,315,11.9,19.0,27,0.00,,---,0.00,VWS V14.01,2013-02-24 15:33:00,
2013-02-24 10:38:00,45.3,13.3,29.79,NNW,338,4.3,9.6,27,0.00,,---,0.00,VWS V14.01,2013-02-24 15:38:00,
2013-02-24 10:40:00,45.1,13.2,29.80,NNW,338,9.6,19.0,27,0.00,,---,0.00,VWS V14.01,2013-02-24 15:40:00,
2013-02-24 10:43:00,44.8,12.9,29.79,NNW,338,6.5,11.0,27,0.00,,---,0.00,VWS V14.01,2013-02-24 15:43:00,
2013-02-24 10:48:00,44.8,12.9,29.79,WSW,248,8.1,8.1,27,0.04,,---,0.04,VWS V14.01,2013-02-24 15:48:00,
2013-02-24 10:50:00,44.6,11.0,29.80,WNW,292,6.5,14.3,25,0.04,,---,0.04,VWS V14.01,2013-02-24 15:50:00,
2013-02-24 10:53:00,45.0,11.3,29.79,NNW,338,6.7,17.5,25,0.04,,---,0.04,VWS V14.01,2013-02-24 15:53:00,
2013-02-24 10:59:00,46.2,12.4,29.79,West,270,4.0,8.1,25,0.04,,---,0.04,VWS V14.01,2013-02-24 15:59:00,
2013-02-24 11:00:00,45.5,11.7,29.80,WNW,292,4.0,17.5,25,0.04,,---,0.04,VWS V14.01,2013-02-24 16:00:00,
2013-02-24 11:04:00,45.9,12.0,29.79,NW,315,8.7,13.9,25,0.04,,---,0.04,VWS V14.01,2013-02-24 16:04:00,
2013-02-24 11:09:00,45.5,8.9,29.79,WNW,292,8.5,17.9,22,0.04,,---,0.04,VWS V14.01,2013-02-24 16:09:00,
2013-02-24 11:10:00,46.2,12.4,29.80,NNW,338,5.8,13.9,25,0.04,,---,0.04,VWS V14.01,2013-02-24 16:10:00,
2013-02-24 11:14:00,46.6,9.8,29.79,NW,315,6.7,17.9,22,0.04,,---,0.04,VWS V14.01,2013-02-24 16:14:00,
2013-02-24 11:19:00,46.0,9.3,29.79,NNW,338,14.1,14.1,22,0.04,,---,0.04,VWS V14.01,2013-02-24 16:19:00,
2013-02-24 11:20:00,46.2,9.5,29.80,NW,315,11.4,17.9,22,0.04,,---,0.04,VWS V14.01,2013-02-24 16:20:00,
2013-02-24 11:24:00,45.3,8.7,29.79,NW,315,7.8,14.1,22,0.04,,---,0.04,VWS V14.01,2013-02-24 16:24:00,
2013-02-24 11:29:00,45.9,9.2,29.79,NW,315,9.2,11.0,22,0.04,,---,0.04,VWS V14.01,2013-02-24 16:29:00,
2013-02-24 11:30:00,45.7,9.0,29.80,NW,315,4.7,14.1,22,0.04,,---,0.04,VWS V14.01,2013-02-24 16:30:00,
2013-02-24 11:34:00,46.0,9.3,29.79,WNW,292,13.0,13.0,22,0.04,,---,0.04,VWS V14.01,2013-02-24 16:34:00,
2013-02-24 11:39:00,45.5,8.9,29.76,NW,315,7.8,10.3,22,0.04,,---,0.04,VWS V14.01,2013-02-24 16:39:00,
2013-02-24 11:40:00,45.5,8.9,29.76,NW,315,6.0,13.0,22,0.04,,---,0.04,VWS V14.01,2013-02-24 16:40:00,
2013-02-24 11:44:00,45.5,8.9,29.76,NW,315,12.8,16.6,22,0.04,,---,0.04,VWS V14.01,2013-02-24 16:44:00,
2013-02-24 11:49:00,45.9,9.2,29.76,NW,315,6.5,11.0,22,0.00,,---,0.04,VWS V14.01,2013-02-24 16:49:00,
2013-02-24 11:50:00,45.9,9.2,29.76,West,270,3.8,16.6,22,0.04,,---,0.04,VWS V14.01,2013-02-24 16:50:00,
2013-02-24 11:55:00,46.8,9.9,29.79,NNW,338,16.3,16.3,22,0.00,,---,0.04,VWS V14.01,2013-02-24 16:55:00,
2013-02-24 12:00:00,45.7,9.0,29.79,WNW,292,7.4,12.5,22,0.00,,---,0.04,VWS V14.01,2013-02-24 17:00:00,
2013-02-24 12:05:00,45.1,8.6,29.79,NW,315,5.8,12.5,22,0.00,,---,0.04,VWS V14.01,2013-02-24 17:05:00,
2013-02-24 12:10:00,44.8,8.3,29.79,WNW,292,10.5,14.1,22,0.00,,---,0.04,VWS V14.01,2013-02-24 17:10:00,
2013-02-24 12:15:00,44.6,8.1,29.79,NW,315,9.8,15.9,22,0.00,,---,0.04,VWS V14.01,2013-02-24 17:15:00,
2013-02-24 12:20:00,44.4,8.9,29.79,WNW,292,5.8,13.6,23,0.00,,---,0.04,VWS V14.01,2013-02-24 17:20:00,
2013-02-24 12:25:00,44.1,8.6,29.79,NNW,338,12.3,13.6,23,0.00,,---,0.04,VWS V14.01,2013-02-24 17:25:00,
2013-02-24 12:30:00,44.1,8.6,29.79,WNW,292,7.6,12.3,23,0.00,,---,0.04,VWS V14.01,2013-02-24 17:30:00,
2013-02-24 12:35:00,43.9,8.5,29.79,NNW,338,10.7,17.5,23,0.00,,---,0.04,VWS V14.01,2013-02-24 17:35:00,
2013-02-24 12:40:00,43.9,8.5,29.80,WNW,292,8.1,17.5,23,0.00,,---,0.04,VWS V14.01,2013-02-24 17:40:00,
2013-02-24 12:41:00,43.7,8.3,29.79,NW,315,8.1,15.4,23,0.00,,---,0.04,VWS V14.01,2013-02-24 17:41:00,
2013-02-24 12:46:00,43.7,8.3,29.79,West,270,6.7,17.0,23,0.00,,---,0.04,VWS V14.01,2013-02-24 17:46:00,
2013-02-24 12:50:00,44.1,8.6,29.80,West,270,11.0,17.0,23,0.00,,---,0.04,VWS V14.01,2013-02-24 17:50:00,
2013-02-24 12:51:00,44.2,8.8,29.79,NW,315,6.5,17.2,23,0.00,,---,0.04,VWS V14.01,2013-02-24 17:51:00,
2013-02-24 12:56:00,43.9,8.5,29.79,North,0,8.5,17.2,23,0.00,,---,0.04,VWS V14.01,2013-02-24 17:56:00,
2013-02-24 13:00:00,43.9,8.5,29.80,NW,315,3.1,17.2,23,0.00,,---,0.04,VWS V14.01,2013-02-24 18:00:00,
2013-02-24 13:01:00,43.9,8.5,29.79,NW,315,8.7,10.7,23,0.00,,---,0.04,VWS V14.01,2013-02-24 18:01:00,
2013-02-24 13:06:00,43.7,8.3,29.79,North,0,5.6,15.2,23,0.00,,---,0.04,VWS V14.01,2013-02-24 18:06:00,
2013-02-24 13:10:00,45.0,8.4,29.80,WNW,292,12.3,15.4,22,0.00,,---,0.04,VWS V14.01,2013-02-24 18:10:00,
2013-02-24 13:11:00,44.2,8.8,29.79,NW,315,6.3,10.7,23,0.00,,---,0.04,VWS V14.01,2013-02-24 18:11:00,
2013-02-24 13:16:00,43.9,8.5,29.79,West,270,12.3,14.8,23,0.00,,---,0.04,VWS V14.01,2013-02-24 18:16:00,
2013-02-24 13:20:00,43.7,8.3,29.80,West,270,12.3,14.8,23,0.00,,---,0.04,VWS V14.01,2013-02-24 18:20:00,
2013-02-24 13:21:00,43.5,8.2,29.79,NW,315,7.8,13.6,23,0.00,,---,0.04,VWS V14.01,2013-02-24 18:21:00,
2013-02-24 13:26:00,43.7,8.3,29.79,NNW,338,6.5,13.6,23,0.00,,---,0.04,VWS V14.01,2013-02-24 18:26:00,
2013-02-24 13:30:00,43.7,8.3,29.80,NNW,338,6.5,13.6,23,0.00,,---,0.04,VWS V14.01,2013-02-24 18:30:00,
2013-02-24 13:32:00,43.7,8.3,29.79,NW,315,11.0,11.0,23,0.00,,---,0.04,VWS V14.01,2013-02-24 18:32:00,
2013-02-24 13:37:00,43.5,8.2,29.79,NW,315,12.5,15.4,23,0.00,,---,0.04,VWS V14.01,2013-02-24 18:37:00,
2013-02-24 13:40:00,43.7,8.3,29.80,NNW,338,15.4,17.5,23,0.00,,---,0.04,VWS V14.01,2013-02-24 18:40:00,
2013-02-24 13:42:00,43.7,8.3,29.79,NW,315,11.9,15.4,23,0.00,,---,0.04,VWS V14.01,2013-02-24 18:42:00,
2013-02-24 13:47:00,43.5,8.2,29.79,NW,315,3.4,10.5,23,0.00,,---,0.04,VWS V14.01,2013-02-24 18:47:00,
2013-02-24 13:50:00,43.5,8.2,29.80,NW,315,10.5,15.4,23,0.00,,---,0.04,VWS V14.01,2013-02-24 18:50:00,
2013-02-24 13:52:00,44.2,8.8,29.79,NW,315,8.5,15.7,23,0.00,,---,0.04,VWS V14.01,2013-02-24 18:52:00,
2013-02-24 13:57:00,44.6,8.1,29.79,North,0,7.8,11.4,22,0.00,,---,0.04,VWS V14.01,2013-02-24 18:57:00,
2013-02-24 14:00:00,44.6,8.1,29.80,WNW,292,11.4,15.7,22,0.00,,---,0.04,VWS V14.01,2013-02-24 19:00:00,
2013-02-24 14:02:00,44.8,8.3,29.79,WSW,248,9.0,12.8,22,0.00,,---,0.04,VWS V14.01,2013-02-24 19:02:00,
2013-02-24 14:07:00,45.0,8.4,29.79,NW,315,17.7,17.7,22,0.00,,---,0.04,VWS V14.01,2013-02-24 19:07:00,
2013-02-24 14:10:00,45.0,8.4,29.80,WNW,292,12.3,15.4,22,0.00,,---,0.04,VWS V14.01,2013-02-24 19:10:00,
2013-02-24 14:12:00,44.2,8.8,29.79,WNW,292,8.7,21.9,23,0.00,,---,0.04,VWS V14.01,2013-02-24 19:12:00,
2013-02-24 14:17:00,43.9,8.5,29.79,WNW,292,8.5,14.5,23,0.00,,---,0.04,VWS V14.01,2013-02-24 19:17:00,
2013-02-24 14:20:00,44.1,8.6,29.80,SSW,202,8.1,21.9,23,0.00,,---,0.04,VWS V14.01,2013-02-24 19:20:00,
2013-02-24 14:23:00,43.3,8.0,29.79,NW,315,8.7,19.0,23,0.00,,---,0.04,VWS V14.01,2013-02-24 19:23:00,
2013-02-24 14:28:00,43.2,7.9,29.79,NW,315,9.8,11.0,23,0.00,,---,0.04,VWS V14.01,2013-02-24 19:28:00,
2013-02-24 14:30:00,43.3,8.0,29.80,NNE,22,11.0,19.0,23,0.00,,---,0.04,VWS V14.01,2013-02-24 19:30:00,
2013-02-24 14:33:00,42.8,7.6,29.79,NW,315,5.6,15.7,23,0.00,,---,0.04,VWS V14.01,2013-02-24 19:33:00,
2013-02-24 14:38:00,43.0,7.7,29.76,North,0,3.6,10.3,23,0.00,,---,0.04,VWS V14.01,2013-02-24 19:38:00,
2013-02-24 14:40:00,43.2,7.9,29.76,WNW,292,5.6,15.7,23,0.00,,---,0.04,VWS V14.01,2013-02-24 19:40:00,
2013-02-24 14:43:00,42.1,5.0,29.76,NW,315,8.5,19.7,21,0.00,,---,0.04,VWS V14.01,2013-02-24 19:43:00,
2013-02-24 14:48:00,41.9,4.8,29.76,WNW,292,10.3,14.8,21,0.00,,---,0.04,VWS V14.01,2013-02-24 19:48:00,
2013-02-24 14:50:00,41.9,4.8,29.76,NNE,22,6.0,19.7,21,0.00,,---,0.04,VWS V14.01,2013-02-24 19:50:00,
2013-02-24 14:53:00,42.3,5.1,29.79,NW,315,9.8,14.8,21,0.00,,---,0.04,VWS V14.01,2013-02-24 19:53:00,
2013-02-24 14:58:00,41.7,4.7,29.79,NNW,338,10.5,10.5,21,0.00,,---,0.04,VWS V14.01,2013-02-24 19:58:00,
2013-02-24 15:00:00,41.7,4.7,29.80,NW,315,8.5,14.8,21,0.00,,---,0.04,VWS V14.01,2013-02-24 20:00:00,
2013-02-24 15:03:00,41.7,4.7,29.79,NW,315,5.4,14.3,21,0.00,,---,0.04,VWS V14.01,2013-02-24 20:03:00,
2013-02-24 15:08:00,41.4,4.4,29.79,North,0,7.8,9.4,21,0.00,,---,0.04,VWS V14.01,2013-02-24 20:08:00,
2013-02-24 15:10:00,41.2,4.2,29.80,NNW,338,5.6,14.3,21,0.00,,---,0.04,VWS V14.01,2013-02-24 20:10:00,
2013-02-24 15:14:00,41.2,4.2,29.79,NNW,338,3.4,17.5,21,0.00,,---,0.04,VWS V14.01,2013-02-24 20:14:00,
2013-02-24 15:19:00,41.2,4.2,29.79,NW,315,4.0,10.1,21,0.00,,---,0.04,VWS V14.01,2013-02-24 20:19:00,
2013-02-24 15:20:00,41.2,4.2,29.80,NW,315,6.5,17.5,21,0.00,,---,0.04,VWS V14.01,2013-02-24 20:20:00,
2013-02-24 15:24:00,41.0,4.1,29.82,West,270,7.4,13.0,21,0.00,,---,0.04,VWS V14.01,2013-02-24 20:24:00,
2013-02-24 15:29:00,40.8,3.9,29.82,NW,315,11.4,14.8,21,0.00,,---,0.04,VWS V14.01,2013-02-24 20:29:00,
2013-02-24 15:30:00,40.8,3.9,29.82,WNW,292,9.6,18.8,21,0.00,,---,0.04,VWS V14.01,2013-02-24 20:30:00,
2013-02-24 15:34:00,40.8,3.9,29.82,West,270,5.8,16.3,21,0.00,,---,0.04,VWS V14.01,2013-02-24 20:34:00,
2013-02-24 15:39:00,40.6,3.8,29.82,NW,315,8.7,17.5,21,0.00,,---,0.04,VWS V14.01,2013-02-24 20:39:00,
2013-02-24 15:40:00,40.8,3.9,29.82,NW,315,6.0,16.3,21,0.00,,---,0.04,VWS V14.01,2013-02-24 20:40:00,
2013-02-24 15:44:00,40.3,3.5,29.82,WNW,292,10.1,19.2,21,0.00,,---,0.04,VWS V14.01,2013-02-24 20:44:00,
2013-02-24 15:49:00,39.9,3.2,29.82,WNW,292,6.7,12.5,21,0.00,,---,0.04,VWS V14.01,2013-02-24 20:49:00,
2013-02-24 15:50:00,40.1,3.3,29.82,WNW,292,7.8,19.2,21,0.00,,---,0.04,VWS V14.01,2013-02-24 20:50:00,
2013-02-24 15:54:00,39.7,3.0,29.82,North,0,10.1,17.5,21,0.00,,---,0.04,VWS V14.01,2013-02-24 20:54:00,
2013-02-24 15:59:00,39.6,2.9,29.82,NW,315,15.7,21.9,21,0.00,,---,0.04,VWS V14.01,2013-02-24 20:59:00,
2013-02-24 16:00:00,39.6,2.9,29.82,NNW,338,21.9,21.9,21,0.00,,---,0.04,VWS V14.01,2013-02-24 21:00:00,
2013-02-24 16:05:00,39.4,2.7,29.82,NW,315,12.5,21.9,21,0.00,,---,0.04,VWS V14.01,2013-02-24 21:05:00,
2013-02-24 16:10:00,39.2,2.6,29.85,NW,315,10.7,13.9,21,0.00,,---,0.04,VWS V14.01,2013-02-24 21:10:00,
2013-02-24 16:15:00,39.0,2.4,29.85,NNW,338,10.3,22.8,21,0.00,,---,0.04,VWS V14.01,2013-02-24 21:15:00,
2013-02-24 16:20:00,38.8,2.3,29.85,West,270,11.4,19.5,21,0.00,,---,0.04,VWS V14.01,2013-02-24 21:20:00,
2013-02-24 16:25:00,38.8,2.3,29.85,NNW,338,8.1,19.5,21,0.00,,---,0.04,VWS V14.01,2013-02-24 21:25:00,
2013-02-24 16:30:00,38.7,2.1,29.85,WNW,292,7.6,14.8,21,0.00,,---,0.04,VWS V14.01,2013-02-24 21:30:00,
2013-02-24 16:35:00,38.7,2.1,29.85,NW,315,7.8,14.8,21,0.00,,---,0.04,VWS V14.01,2013-02-24 21:35:00,
2013-02-24 16:40:00,38.5,2.0,29.85,NW,315,7.8,12.5,21,0.00,,---,0.04,VWS V14.01,2013-02-24 21:40:00,
2013-02-24 16:44:00,38.5,2.0,29.85,NNE,22,4.3,4.3,21,0.00,,---,0.04,VWS V14.01,2013-02-24 21:44:00,
2013-02-24 16:45:00,38.5,2.0,29.85,NNE,22,6.3,9.2,21,0.00,,---,0.04,VWS V14.01,2013-02-24 21:45:00,
2013-02-24 16:50:00,38.3,1.8,29.85,NW,315,9.4,16.1,21,0.00,,---,0.04,VWS V14.01,2013-02-24 21:50:00,
2013-02-24 16:55:00,38.1,1.6,29.85,NW,315,14.8,16.1,21,0.00,,---,0.04,VWS V14.01,2013-02-24 21:55:00,
2013-02-24 17:00:00,37.9,1.5,29.85,NW,315,8.7,17.5,21,0.00,,---,0.04,VWS V14.01,2013-02-24 22:00:00,
2013-02-24 17:05:00,37.9,1.5,29.85,NNW,338,5.8,23.9,21,0.00,,---,0.04,VWS V14.01,2013-02-24 22:05:00,
2013-02-24 17:10:00,37.9,1.5,29.85,NW,315,7.2,23.9,21,0.00,,---,0.04,VWS V14.01,2013-02-24 22:10:00,
2013-02-24 17:11:00,37.8,1.4,29.85,SSW,202,7.8,11.4,21,0.00,,---,0.04,VWS V14.01,2013-02-24 22:11:00,
2013-02-24 17:16:00,37.8,1.4,29.85,NW,315,5.6,15.2,21,0.00,,---,0.04,VWS V14.01,2013-02-24 22:16:00,
2013-02-24 17:20:00,37.8,1.4,29.85,WNW,292,6.3,15.2,21,0.00,,---,0.04,VWS V14.01,2013-02-24 22:20:00,
2013-02-24 17:21:00,37.6,1.2,29.85,NW,315,5.4,12.5,21,0.00,,---,0.04,VWS V14.01,2013-02-24 22:21:00,
2013-02-24 17:26:00,37.6,1.2,29.88,West,270,6.0,14.5,21,0.00,,---,0.04,VWS V14.01,2013-02-24 22:26:00,
2013-02-24 17:30:00,37.6,1.2,29.88,North,0,4.9,14.5,21,0.00,,---,0.04,VWS V14.01,2013-02-24 22:30:00,
2013-02-24 17:31:00,37.4,1.0,29.88,WNW,292,10.5,15.4,21,0.00,,---,0.04,VWS V14.01,2013-02-24 22:31:00,
2013-02-24 17:36:00,37.4,1.0,29.88,NW,315,8.7,17.5,21,0.00,,---,0.04,VWS V14.01,2013-02-24 22:36:00,
2013-02-24 17:40:00,37.4,1.0,29.88,West,270,6.3,17.5,21,0.00,,---,0.04,VWS V14.01,2013-02-24 22:40:00,
2013-02-24 17:41:00,37.2,1.9,29.88,NNW,338,22.2,22.2,22,0.00,,---,0.04,VWS V14.01,2013-02-24 22:41:00,
2013-02-24 17:46:00,37.2,1.9,29.88,NW,315,6.3,22.2,22,0.00,,---,0.04,VWS V14.01,2013-02-24 22:46:00,
2013-02-24 17:50:00,37.2,1.9,29.88,WNW,292,10.7,22.2,22,0.00,,---,0.04,VWS V14.01,2013-02-24 22:50:00,
2013-02-24 17:51:00,36.9,1.6,29.91,NNW,338,13.0,13.6,22,0.00,,---,0.04,VWS V14.01,2013-02-24 22:51:00,
2013-02-24 17:56:00,36.7,1.4,29.91,NNW,338,6.5,13.6,22,0.00,,---,0.04,VWS V14.01,2013-02-24 22:56:00,
2013-02-24 18:00:00,36.7,1.4,29.91,NNW,338,6.5,13.6,22,0.00,,---,0.04,VWS V14.01,2013-02-24 23:00:00,
2013-02-24 18:01:00,36.7,1.4,29.91,North,0,5.4,11.0,22,0.00,,---,0.04,VWS V14.01,2013-02-24 23:01:00,
2013-02-24 18:07:00,36.3,1.1,29.91,NNW,338,9.8,9.8,22,0.00,,---,0.04,VWS V14.01,2013-02-24 23:07:00,
2013-02-24 18:10:00,36.3,1.1,29.91,North,0,4.3,14.5,22,0.00,,---,0.04,VWS V14.01,2013-02-24 23:10:00,
2013-02-24 18:12:00,36.3,1.1,29.91,NW,315,11.4,12.5,22,0.00,,---,0.04,VWS V14.01,2013-02-24 23:12:00,
2013-02-24 18:17:00,36.0,0.8,29.91,NW,315,8.7,8.7,22,0.00,,---,0.04,VWS V14.01,2013-02-24 23:17:00,
2013-02-24 18:20:00,36.0,0.8,29.91,North,0,1.6,12.5,22,0.00,,---,0.04,VWS V14.01,2013-02-24 23:20:00,
2013-02-24 18:22:00,35.8,0.7,29.91,NW,315,7.8,8.7,22,0.00,,---,0.04,VWS V14.01,2013-02-24 23:22:00,
2013-02-24 18:27:00,35.6,0.5,29.91,West,270,3.4,3.4,22,0.00,,---,0.04,VWS V14.01,2013-02-24 23:27:00,
2013-02-24 18:30:00,35.8,0.7,29.91,WNW,292,3.1,8.7,22,0.00,,---,0.04,VWS V14.01,2013-02-24 23:30:00,
2013-02-24 18:32:00,35.6,0.5,29.91,NW,315,6.3,7.6,22,0.00,,---,0.04,VWS V14.01,2013-02-24 23:32:00,
2013-02-24 18:37:00,35.4,0.4,29.91,West,270,2.5,3.6,22,0.00,,---,0.04,VWS V14.01,2013-02-24 23:37:00,
2013-02-24 18:40:00,34.9,-0.1,29.94,WNW,292,4.5,10.3,22,0.00,,---,0.04,VWS V14.01,2013-02-24 23:40:00,
2013-02-24 18:42:00,35.4,0.4,29.91,NW,315,10.7,10.7,22,0.00,,---,0.04,VWS V14.01,2013-02-24 23:42:00,
2013-02-24 18:47:00,35.4,0.4,29.91,NW,315,9.8,9.8,22,0.00,,---,0.04,VWS V14.01,2013-02-24 23:47:00,
2013-02-24 18:50:00,35.4,0.4,29.91,NW,315,4.9,10.7,22,0.00,,---,0.04,VWS V14.01,2013-02-24 23:50:00,
2013-02-24 18:52:00,35.4,0.4,29.94,North,0,4.9,11.0,22,0.00,,---,0.04,VWS V14.01,2013-02-24 23:52:00,
2013-02-24 18:57:00,35.2,0.2,29.94,NNE,22,10.1,10.1,22,0.00,,---,0.04,VWS V14.01,2013-02-24 23:57:00,
2013-02-24 19:00:00,35.2,0.2,29.94,NW,315,2.7,11.0,22,0.00,,---,0.04,VWS V14.01,2013-02-25 00:00:00,
2013-02-24 19:02:00,35.1,0.1,29.94,NNW,338,9.2,10.7,22,0.00,,---,0.04,VWS V14.01,2013-02-25 00:02:00,
2013-02-24 19:08:00,35.1,0.1,29.94,North,0,5.4,11.2,22,0.00,,---,0.04,VWS V14.01,2013-02-25 00:08:00,
2013-02-24 19:10:00,34.0,-0.9,29.97,WNW,292,3.6,7.2,22,0.00,,---,0.04,VWS V14.01,2013-02-25 00:10:00,
2013-02-24 19:13:00,34.9,-0.1,29.94,NW,315,8.5,11.2,22,0.00,,---,0.04,VWS V14.01,2013-02-25 00:13:00,
2013-02-24 19:14:00,34.0,-0.9,29.97,NNW,338,5.8,5.8,22,0.00,,---,0.04,VWS V14.01,2013-02-25 00:14:00,
2013-02-24 19:18:00,35.1,0.1,29.94,NW,315,4.9,10.1,22,0.00,,---,0.04,VWS V14.01,2013-02-25 00:18:00,
2013-02-24 19:20:00,34.9,-0.1,29.94,NW,315,5.6,11.2,22,0.00,,---,0.04,VWS V14.01,2013-02-25 00:20:00,
2013-02-24 19:23:00,34.9,-0.1,29.94,North,0,5.6,10.1,22,0.00,,---,0.04,VWS V14.01,2013-02-25 00:23:00,
2013-02-24 19:28:00,34.7,-0.2,29.94,West,270,7.6,7.6,22,0.00,,---,0.04,VWS V14.01,2013-02-25 00:28:00,
2013-02-24 19:30:00,34.9,-0.1,29.94,WNW,292,2.7,10.1,22,0.00,,---,0.04,VWS V14.01,2013-02-25 00:30:00,
2013-02-24 19:33:00,34.7,-0.2,29.94,WNW,292,7.8,7.8,22,0.00,,---,0.04,VWS V14.01,2013-02-25 00:33:00,
2013-02-24 19:38:00,34.7,-0.2,29.94,WNW,292,6.0,6.0,22,0.00,,---,0.04,VWS V14.01,2013-02-25 00:38:00,
2013-02-24 19:40:00,34.9,-0.1,29.94,WNW,292,4.5,10.3,22,0.00,,---,0.04,VWS V14.01,2013-02-25 00:40:00,
2013-02-24 19:43:00,34.7,-0.2,29.94,WNW,292,8.5,8.5,22,0.00,,---,0.04,VWS V14.01,2013-02-25 00:43:00,
2013-02-24 19:48:00,34.3,-0.6,29.94,SW,225,2.0,4.3,22,0.00,,---,0.04,VWS V14.01,2013-02-25 00:48:00,
2013-02-24 19:50:00,34.5,-0.4,29.94,NW,315,3.4,8.5,22,0.00,,---,0.04,VWS V14.01,2013-02-25 00:50:00,
2013-02-24 19:53:00,34.3,-0.6,29.94,NW,315,2.7,8.5,22,0.00,,---,0.04,VWS V14.01,2013-02-25 00:53:00,
2013-02-24 19:58:00,34.2,-0.7,29.94,WNW,292,2.5,6.0,22,0.00,,---,0.04,VWS V14.01,2013-02-25 00:58:00,
2013-02-24 20:00:00,34.2,-0.7,29.94,NW,315,3.1,8.5,22,0.00,,---,0.04,VWS V14.01,2013-02-25 01:00:00,
2013-02-24 20:03:00,34.2,-0.7,29.94,West,270,3.8,7.2,22,0.00,,---,0.04,VWS V14.01,2013-02-25 01:03:00,
2013-02-24 20:08:00,34.0,-0.9,29.97,West,270,4.9,7.4,22,0.00,,---,0.04,VWS V14.01,2013-02-25 01:08:00,
2013-02-24 20:10:00,34.0,-0.9,29.97,WNW,292,3.6,7.2,22,0.00,,---,0.04,VWS V14.01,2013-02-25 01:10:00,
2013-02-24 20:14:00,34.0,-0.9,29.97,NW,315,4.9,6.3,22,0.00,,---,0.04,VWS V14.01,2013-02-25 01:14:00,
2013-02-24 20:19:00,34.0,-0.9,29.97,NW,315,5.4,6.5,22,0.00,,---,0.04,VWS V14.01,2013-02-25 01:19:00,
2013-02-24 20:20:00,34.0,-0.9,29.97,NW,315,4.9,6.5,22,0.00,,---,0.04,VWS V14.01,2013-02-25 01:20:00,
2013-02-24 20:24:00,33.8,-1.0,29.97,NW,315,3.6,7.2,22,0.00,,---,0.04,VWS V14.01,2013-02-25 01:24:00,
2013-02-24 20:29:00,33.8,-1.0,29.97,NW,315,4.9,9.6,22,0.00,,---,0.04,VWS V14.01,2013-02-25 01:29:00,
2013-02-24 20:30:00,33.8,-1.0,29.97,WNW,292,5.4,7.2,22,0.00,,---,0.04,VWS V14.01,2013-02-25 01:30:00,
2013-02-24 20:34:00,33.8,-1.0,29.97,NW,315,7.8,9.6,22,0.00,,---,0.04,VWS V14.01,2013-02-25 01:34:00,
2013-02-24 20:39:00,33.8,-1.0,29.97,WNW,292,4.7,6.7,22,0.00,,---,0.04,VWS V14.01,2013-02-25 01:39:00,
2013-02-24 20:40:00,33.8,-1.0,29.97,NW,315,4.3,9.6,22,0.00,,---,0.04,VWS V14.01,2013-02-25 01:40:00,
2013-02-24 20:44:00,33.8,-1.0,29.97,West,270,3.1,8.1,22,0.00,,---,0.04,VWS V14.01,2013-02-25 01:44:00,
2013-02-24 20:49:00,33.6,-0.2,29.97,WSW,248,2.0,3.4,23,0.00,,---,0.04,VWS V14.01,2013-02-25 01:49:00,
2013-02-24 20:50:00,32.7,-1.0,29.97,NW,315,2.7,6.0,23,0.00,,---,0.04,VWS V14.01,2013-02-25 01:50:00,
2013-02-24 20:54:00,33.4,-0.4,29.97,WSW,248,4.0,4.0,23,0.00,,---,0.04,VWS V14.01,2013-02-25 01:54:00,
2013-02-24 20:59:00,33.3,-0.5,29.97,WNW,292,3.4,4.9,23,0.00,,---,0.04,VWS V14.01,2013-02-25 01:59:00,
2013-02-24 21:00:00,33.4,-0.4,29.97,West,270,3.8,6.0,23,0.00,,---,0.04,VWS V14.01,2013-02-25 02:00:00,
2013-02-24 21:05:00,33.3,-0.5,29.97,WNW,292,2.2,7.6,23,0.00,,---,0.04,VWS V14.01,2013-02-25 02:05:00,
2013-02-24 21:10:00,33.1,-0.7,29.97,West,270,3.8,4.7,23,0.00,,---,0.04,VWS V14.01,2013-02-25 02:10:00,
2013-02-24 21:15:00,32.9,-0.8,29.97,West,270,4.7,5.6,23,0.00,,---,0.04,VWS V14.01,2013-02-25 02:15:00,
2013-02-24 21:20:00,32.7,-1.0,29.97,WNW,292,3.4,4.7,23,0.00,,---,0.04,VWS V14.01,2013-02-25 02:20:00,
2013-02-24 21:25:00,32.7,-1.0,29.97,WNW,292,3.4,5.8,23,0.00,,---,0.04,VWS V14.01,2013-02-25 02:25:00,
2013-02-24 21:30:00,32.7,-1.0,29.97,NW,315,3.8,5.4,23,0.00,,---,0.04,VWS V14.01,2013-02-25 02:30:00,
2013-02-24 21:35:00,32.7,-1.0,29.97,WNW,292,5.4,6.5,23,0.00,,---,0.04,VWS V14.01,2013-02-25 02:35:00,
2013-02-24 21:40:00,32.7,-1.0,29.97,NNW,338,4.0,4.9,23,0.00,,---,0.04,VWS V14.01,2013-02-25 02:40:00,
2013-02-24 21:45:00,32.7,-1.0,29.97,NNE,22,4.9,6.0,23,0.00,,---,0.04,VWS V14.01,2013-02-25 02:45:00,
2013-02-24 21:50:00,32.5,-1.1,29.97,West,270,3.1,5.6,23,0.00,,---,0.04,VWS V14.01,2013-02-25 02:50:00,
2013-02-24 21:55:00,32.5,-1.1,29.97,WNW,292,4.0,6.5,23,0.00,,---,0.04,VWS V14.01,2013-02-25 02:55:00,
2013-02-24 22:00:00,32.5,-1.1,29.97,NW,315,3.4,6.5,23,0.00,,---,0.04,VWS V14.01,2013-02-25 03:00:00,
2013-02-24 22:01:00,32.5,-1.1,29.97,NW,315,5.4,6.3,23,0.00,,---,0.04,VWS V14.01,2013-02-25 03:01:00,
2013-02-24 22:06:00,32.5,-1.1,29.97,NW,315,5.4,6.3,23,0.00,,---,0.04,VWS V14.01,2013-02-25 03:06:00,
2013-02-24 22:10:00,32.5,-1.1,29.97,NW,315,7.8,7.8,23,0.00,,---,0.04,VWS V14.01,2013-02-25 03:10:00,
2013-02-24 22:11:00,32.5,-1.1,29.97,NW,315,3.4,8.5,23,0.00,,---,0.04,VWS V14.01,2013-02-25 03:11:00,
2013-02-24 22:16:00,32.5,-1.1,29.97,NW,315,5.8,8.5,23,0.00,,---,0.04,VWS V14.01,2013-02-25 03:16:00,
2013-02-24 22:20:00,32.5,-1.1,29.97,WNW,292,6.3,8.5,23,0.00,,---,0.04,VWS V14.01,2013-02-25 03:20:00,
2013-02-24 22:21:00,32.5,-1.1,29.97,NW,315,3.1,6.3,23,0.00,,---,0.04,VWS V14.01,2013-02-25 03:21:00,
2013-02-24 22:26:00,32.5,-1.1,29.97,SW,225,3.1,6.3,23,0.00,,---,0.04,VWS V14.01,2013-02-25 03:26:00,
2013-02-24 22:30:00,32.5,-1.1,30.00,WNW,292,4.3,9.8,23,0.00,,---,0.04,VWS V14.01,2013-02-25 03:30:00,
2013-02-24 22:31:00,32.5,-1.1,29.97,NW,315,5.4,7.4,23,0.00,,---,0.04,VWS V14.01,2013-02-25 03:31:00,
2013-02-24 22:36:00,32.5,-1.1,29.97,NW,315,6.3,7.4,23,0.00,,---,0.04,VWS V14.01,2013-02-25 03:36:00,
2013-02-24 22:40:00,32.5,-1.1,29.97,NW,315,6.0,7.4,23,0.00,,---,0.04,VWS V14.01,2013-02-25 03:40:00,
2013-02-24 22:41:00,32.5,-1.1,29.97,NNW,338,3.1,12.5,23,0.00,,---,0.04,VWS V14.01,2013-02-25 03:41:00,
2013-02-24 22:46:00,32.7,-1.0,29.97,NW,315,5.8,12.5,23,0.00,,---,0.04,VWS V14.01,2013-02-25 03:46:00,
2013-02-24 22:50:00,32.7,-1.0,29.97,NW,315,5.8,12.5,23,0.00,,---,0.04,VWS V14.01,2013-02-25 03:50:00,
2013-02-24 22:51:00,32.9,-0.8,29.97,NW,315,6.3,9.0,23,0.00,,---,0.04,VWS V14.01,2013-02-25 03:51:00,
2013-02-24 22:57:00,32.7,-1.0,29.97,North,0,3.4,3.4,23,0.00,,---,0.04,VWS V14.01,2013-02-25 03:57:00,
2013-02-24 23:00:00,30.9,-2.5,30.00,WNW,292,3.4,4.3,23,0.00,,---,0.00,VWS V14.01,2013-02-25 04:00:00,
2013-02-24 23:02:00,32.7,-1.0,29.97,WNW,292,6.0,6.5,23,0.00,,---,0.04,VWS V14.01,2013-02-25 04:02:00,
2013-02-24 23:07:00,32.7,-1.0,29.97,West,270,6.5,6.5,23,0.00,,---,0.04,VWS V14.01,2013-02-25 04:07:00,
2013-02-24 23:10:00,32.7,-1.0,29.97,NW,315,4.3,8.1,23,0.00,,---,0.04,VWS V14.01,2013-02-25 04:10:00,
2013-02-24 23:12:00,32.5,-1.1,29.97,East,90,4.7,7.6,23,0.00,,---,0.04,VWS V14.01,2013-02-25 04:12:00,
2013-02-24 23:17:00,32.7,-1.0,29.97,NW,315,8.1,9.8,23,0.00,,---,0.04,VWS V14.01,2013-02-25 04:17:00,
2013-02-24 23:20:00,32.7,-1.0,29.97,NW,315,5.4,9.8,23,0.00,,---,0.04,VWS V14.01,2013-02-25 04:20:00,
2013-02-24 23:22:00,32.7,-1.0,30.00,North,0,5.4,9.8,23,0.00,,---,0.04,VWS V14.01,2013-02-25 04:22:00,
2013-02-24 23:27:00,32.5,-1.1,30.00,NW,315,4.3,4.3,23,0.00,,---,0.04,VWS V14.01,2013-02-25 04:27:00,
2013-02-24 23:30:00,30.9,-2.5,30.03,NW,315,6.3,6.3,23,0.00,,---,0.00,VWS V14.01,2013-02-25 04:30:00,
2013-02-24 23:32:00,32.4,-1.3,30.00,NW,315,4.5,6.3,23,0.00,,---,0.04,VWS V14.01,2013-02-25 04:32:00,
2013-02-24 23:37:00,32.2,-1.4,30.00,NW,315,1.3,4.0,23,0.00,,---,0.04,VWS V14.01,2013-02-25 04:37:00,
2013-02-24 23:40:00,32.4,-1.3,30.00,NW,315,4.0,6.5,23,0.00,,---,0.04,VWS V14.01,2013-02-25 04:40:00,
2013-02-24 23:42:00,31.8,-1.8,30.00,WNW,292,4.3,4.3,23,0.00,,---,0.04,VWS V14.01,2013-02-25 04:42:00,
2013-02-24 23:47:00,31.5,-2.0,30.00,WNW,292,3.1,4.3,23,0.00,,---,0.04,VWS V14.01,2013-02-25 04:47:00,
2013-02-24 23:50:00,31.5,-2.0,30.00,NW,315,4.3,5.4,23,0.00,,---,0.04,VWS V14.01,2013-02-25 04:50:00,
2013-02-24 23:52:00,31.1,-2.4,30.00,WNW,292,3.8,4.3,23,0.00,,---,0.04,VWS V14.01,2013-02-25 04:52:00,
2013-02-24 23:58:00,30.9,-2.5,30.00,NNW,338,2.7,4.3,23,0.00,,---,0.00,VWS V14.01,2013-02-25 04:58:00,